FLOCK 4BE 29

导读

FLOCK 4BE 29是美国于2024年8月16日08:00发射的对地观测卫星,属于Flock系列小卫星星座的组成部分,该星座由美国行星公司(Planet Labs)运营,主打高频率重访的地球遥感监测。卫星依托微纳卫星技术,具备高分辨率成像能力,可服务于农业监测、城市规划、灾害评估、生态环境观测等多个领域,进一步补充了Planet星座的全球观测覆盖能力,推动商业遥感卫星网络的持续完善。

基本信息
目录编号:
60509
目录名称:
FLOCK 4BE 29
国际标识:
2024-149AT
轨道中心:
EARTH
卫星名称:
FLOCK 4BE 29
卫星全名:
FLOCK 4BE 29
卫星状态:
在轨 (已飞行710 天)
发射日期:
2024-08-16 UTC
国别 :
美国 (US)
星等 :
--
轨道信息
数据来源 国际轨道数据
星历时间: 2026-07-26T19:50:00+0800
1天前
查看轨道信息
半长轴: 6805.534km
偏心率: 0.0004181
轨道倾角: 97.380°
近地点辐角 152.762°
升交点赤经 294.005°
平近点角 207.385°
近地点: 424.551km
远地点: 430.243km
周期: 93.122分钟
每日圈数: 15.46356
详细信息
使用方式:
暂无
2D轨道图
3D轨道图
轨道高度分析图
轨道倾角分析图
轨道综合分析图
查看轨道综合分析图